Location: Newark
(25.0000°N, 73.5000°E)
Time: 00:33:07
(UTC+00:00)

Tiros 1 despin weight - Pass Details

Date: 07 March 2021
Orbit: 593 x 641 km, 48.2° (Epoch: 15 April)

Event Time Altitude Azimuth Distance (km) Brightness Sun altitude
Rises 17:17:29 0° 274° (W) 2,849 - -55.1°
Reaches altitude 10° 17:21:01 10° 303° (WNW) 1,959 - -55.8°
Maximum altitude 17:23:03 13° 330° (NNW) 1,790 - -56.1°
Drops below altitude 10° 17:25:05 10° 357° (N) 1,975 - -56.5°
Sets 17:28:42 0° 26° (NNE) 2,896 - -57.2°
